DOL19 KTUS-CYYJ

Flight info

Callsign DOL19
Flight time N/A
Altitude 40000
Route WLDKT4 BBALL DCT PXR DCT NAVHO DCT AHOWW DCT WINEN DCT IMB DCT JKNOX DCT SEA Q902 ROSLN T487 DISCO DISCO5
Aircraft B737/M-SDE2E3FGHIRWXY/LB1

Departure

Time N/A
Airport Tucson International Airport (KTUS)

Arrival

Time 2026-04-27 02:59
Airport Victoria International Airport (CYYJ)
Time Latitude Longitude Altitude Speed Heading
2026-04-27 02:06 44.74815 -119.79235 39899 ft 429 kts 331°
2026-04-27 02:06 44.77437 -119.81265 39895 ft 429 kts 331°
2026-04-27 02:07 44.82659 -119.85366 39898 ft 430 kts 331°
2026-04-27 02:07 44.87874 -119.89511 39889 ft 430 kts 330°
2026-04-27 02:08 44.93053 -119.93649 39890 ft 430 kts 330°
2026-04-27 02:08 44.98258 -119.97815 39910 ft 430 kts 330°
2026-04-27 02:09 45.03475 -120.01999 39892 ft 430 kts 330°
2026-04-27 02:09 45.08679 -120.06182 39892 ft 430 kts 330°
2026-04-27 02:10 45.13882 -120.10371 39887 ft 429 kts 330°
2026-04-27 02:10 45.19070 -120.14558 39887 ft 429 kts 330°
2026-04-27 02:11 45.24253 -120.18750 39878 ft 428 kts 330°
2026-04-27 02:11 45.29423 -120.22940 39878 ft 428 kts 330°
2026-04-27 02:12 45.34589 -120.27136 39860 ft 427 kts 330°
2026-04-27 02:12 45.39743 -120.31331 39867 ft 426 kts 330°
2026-04-27 02:13 45.44852 -120.35498 39864 ft 426 kts 330°
2026-04-27 02:13 45.49988 -120.39696 39856 ft 425 kts 330°
2026-04-27 02:14 45.55035 -120.44102 39841 ft 426 kts 327°
2026-04-27 02:14 45.59948 -120.48816 39849 ft 426 kts 327°
2026-04-27 02:15 45.64852 -120.53563 39853 ft 426 kts 327°
2026-04-27 02:15 45.69777 -120.58298 39841 ft 427 kts 327°
2026-04-27 02:16 45.74708 -120.63025 39854 ft 427 kts 327°
2026-04-27 02:16 45.79644 -120.67757 39840 ft 427 kts 327°
2026-04-27 02:17 45.84577 -120.72496 39846 ft 427 kts 327°
2026-04-27 02:17 45.89505 -120.77242 39860 ft 426 kts 328°
2026-04-27 02:18 45.94414 -120.81980 39851 ft 424 kts 328°
2026-04-27 02:18 45.99304 -120.86710 39846 ft 423 kts 328°
2026-04-27 02:19 46.04142 -120.91398 39851 ft 421 kts 327°
2026-04-27 02:19 46.08993 -120.96112 39848 ft 420 kts 327°
2026-04-27 02:20 46.13830 -121.00821 39852 ft 419 kts 327°
2026-04-27 02:20 46.18649 -121.05522 39863 ft 418 kts 327°
2026-04-27 02:21 46.23488 -121.10253 39862 ft 417 kts 327°
2026-04-27 02:21 46.28255 -121.14924 39871 ft 416 kts 327°
2026-04-27 02:22 46.33050 -121.19632 39870 ft 416 kts 327°
2026-04-27 02:22 46.37840 -121.24345 39863 ft 416 kts 327°
2026-04-27 02:23 46.42633 -121.29073 39885 ft 417 kts 327°
2026-04-27 02:23 46.47423 -121.33806 39888 ft 417 kts 327°
2026-04-27 02:24 46.52227 -121.38564 39891 ft 418 kts 327°
2026-04-27 02:24 46.57035 -121.43337 39897 ft 418 kts 327°
2026-04-27 02:25 46.61839 -121.48115 39899 ft 419 kts 327°
2026-04-27 02:25 46.66651 -121.52921 39919 ft 419 kts 327°
2026-04-27 02:26 46.71463 -121.57738 39914 ft 420 kts 327°
2026-04-27 02:26 46.76284 -121.62555 39912 ft 421 kts 327°
2026-04-27 02:27 46.81086 -121.67368 39916 ft 421 kts 327°
2026-04-27 02:27 46.85908 -121.72218 39927 ft 421 kts 327°
2026-04-27 02:28 46.90735 -121.77084 39927 ft 422 kts 327°
2026-04-27 02:28 46.95576 -121.81976 39916 ft 423 kts 327°
2026-04-27 02:29 47.00412 -121.86872 39918 ft 423 kts 327°
2026-04-27 02:29 47.05237 -121.91760 39916 ft 422 kts 327°
2026-04-27 02:30 47.10049 -121.96662 39924 ft 420 kts 327°
2026-04-27 02:30 47.14851 -122.01560 39699 ft 422 kts 327°
2026-04-27 02:31 47.17263 -122.04023 39348 ft 421 kts 327°
2026-04-27 02:31 47.19662 -122.06476 39015 ft 419 kts 327°
2026-04-27 02:31 47.22054 -122.08924 38690 ft 418 kts 327°
2026-04-27 02:31 47.24432 -122.11362 38306 ft 416 kts 327°
2026-04-27 02:32 47.26764 -122.13755 37903 ft 413 kts 328°
2026-04-27 02:32 47.28355 -122.15389 37628 ft 411 kts 328°
2026-04-27 02:32 47.31449 -122.18569 37092 ft 407 kts 328°
2026-04-27 02:32 47.33755 -122.20943 36680 ft 403 kts 328°
2026-04-27 02:33 47.36053 -122.23311 36303 ft 400 kts 329°
2026-04-27 02:33 47.38317 -122.25646 35927 ft 396 kts 329°
2026-04-27 02:33 47.40564 -122.27965 35555 ft 392 kts 329°
2026-04-27 02:33 47.42072 -122.29522 35303 ft 390 kts 329°
2026-04-27 02:34 47.44297 -122.31765 34939 ft 385 kts 332°
2026-04-27 02:34 47.46555 -122.33840 34582 ft 380 kts 334°
2026-04-27 02:34 47.48820 -122.35831 34225 ft 377 kts 334°
2026-04-27 02:34 47.51042 -122.37760 33855 ft 374 kts 335°
2026-04-27 02:35 47.53286 -122.39709 33418 ft 376 kts 334°
2026-04-27 02:35 47.55552 -122.41685 33021 ft 381 kts 334°
2026-04-27 02:35 47.57852 -122.43702 32626 ft 385 kts 334°
2026-04-27 02:35 47.60149 -122.45729 32229 ft 384 kts 333°
2026-04-27 02:36 47.62445 -122.47765 31849 ft 384 kts 333°
2026-04-27 02:36 47.64734 -122.49800 31456 ft 383 kts 333°
2026-04-27 02:36 47.67019 -122.51835 31077 ft 383 kts 333°
2026-04-27 02:36 47.69303 -122.53871 30710 ft 382 kts 333°
2026-04-27 02:37 47.71584 -122.55907 30314 ft 383 kts 333°
2026-04-27 02:37 47.73874 -122.57951 29952 ft 387 kts 333°
2026-04-27 02:37 47.76194 -122.60023 29509 ft 392 kts 333°
2026-04-27 02:37 47.78536 -122.62119 29084 ft 393 kts 333°
2026-04-27 02:38 47.80881 -122.64221 28666 ft 394 kts 333°
2026-04-27 02:38 47.83230 -122.66328 28250 ft 395 kts 333°
2026-04-27 02:38 47.85580 -122.68441 27841 ft 395 kts 333°
2026-04-27 02:38 47.87927 -122.70552 27298 ft 391 kts 333°
2026-04-27 02:39 47.90229 -122.72628 26674 ft 383 kts 333°
2026-04-27 02:39 47.92488 -122.74667 26048 ft 375 kts 333°
2026-04-27 02:39 47.94699 -122.76663 25452 ft 369 kts 333°
2026-04-27 02:39 47.96851 -122.78606 24884 ft 363 kts 333°
2026-04-27 02:40 47.98997 -122.80544 24299 ft 358 kts 333°
2026-04-27 02:40 48.01113 -122.82458 23685 ft 354 kts 333°
2026-04-27 02:40 48.03205 -122.84351 23173 ft 348 kts 333°
2026-04-27 02:40 48.05256 -122.86210 22622 ft 342 kts 333°
2026-04-27 02:41 48.07274 -122.88040 22086 ft 337 kts 333°
2026-04-27 02:41 48.09270 -122.89852 21565 ft 334 kts 333°
2026-04-27 02:41 48.11245 -122.91645 21037 ft 331 kts 333°
2026-04-27 02:41 48.13203 -122.93424 20540 ft 328 kts 333°
2026-04-27 02:42 48.15151 -122.95196 20057 ft 326 kts 333°
2026-04-27 02:42 48.17085 -122.96957 19570 ft 324 kts 333°
2026-04-27 02:42 48.19004 -122.98707 19090 ft 322 kts 332°
2026-04-27 02:42 48.20914 -123.00450 18619 ft 321 kts 332°
2026-04-27 02:43 48.22810 -123.02182 18163 ft 318 kts 332°
2026-04-27 02:43 48.24694 -123.03905 17624 ft 315 kts 332°
2026-04-27 02:43 48.26553 -123.05603 17103 ft 312 kts 332°
2026-04-27 02:43 48.28396 -123.07291 16569 ft 309 kts 332°
2026-04-27 02:44 48.30216 -123.08962 16159 ft 304 kts 332°
2026-04-27 02:44 48.32000 -123.10599 15774 ft 298 kts 332°
2026-04-27 02:44 48.33738 -123.12241 15395 ft 293 kts 330°
2026-04-27 02:44 48.35447 -123.13869 15016 ft 288 kts 331°
2026-04-27 02:45 48.37119 -123.15476 14645 ft 285 kts 324°
2026-04-27 02:45 48.38434 -123.17719 14285 ft 288 kts 307°
2026-04-27 02:45 48.39453 -123.20299 13934 ft 285 kts 304°
2026-04-27 02:45 48.40413 -123.22898 13559 ft 283 kts 303°
2026-04-27 02:46 48.41357 -123.25475 13155 ft 280 kts 303°
2026-04-27 02:46 48.42295 -123.28027 12695 ft 278 kts 303°
2026-04-27 02:46 48.43238 -123.30577 12159 ft 280 kts 303°
2026-04-27 02:46 48.44190 -123.33141 11652 ft 281 kts 302°
2026-04-27 02:47 48.45148 -123.35714 11142 ft 282 kts 302°
2026-04-27 02:47 48.46095 -123.38256 10759 ft 279 kts 302°
2026-04-27 02:47 48.47035 -123.40780 10429 ft 274 kts 302°
2026-04-27 02:47 48.47960 -123.43264 10103 ft 270 kts 302°
2026-04-27 02:48 48.48852 -123.45661 9980 ft 258 kts 302°
2026-04-27 02:48 48.49730 -123.48022 9679 ft 255 kts 302°
2026-04-27 02:48 48.50589 -123.50330 9421 ft 250 kts 302°
2026-04-27 02:48 48.51434 -123.52601 9151 ft 246 kts 302°
2026-04-27 02:49 48.52265 -123.54836 8872 ft 243 kts 302°
2026-04-27 02:49 48.53084 -123.57040 8604 ft 239 kts 302°
2026-04-27 02:49 48.53892 -123.59220 8353 ft 235 kts 302°
2026-04-27 02:49 48.54676 -123.61339 8114 ft 228 kts 302°
2026-04-27 02:50 48.55433 -123.63427 7861 ft 227 kts 300°
2026-04-27 02:50 48.56148 -123.65559 7606 ft 227 kts 299°
2026-04-27 02:50 48.56856 -123.67692 7350 ft 227 kts 299°
2026-04-27 02:50 48.57565 -123.69824 7087 ft 227 kts 299°
2026-04-27 02:51 48.58273 -123.71948 6832 ft 226 kts 299°
2026-04-27 02:51 48.58976 -123.74061 6602 ft 225 kts 299°
2026-04-27 02:51 48.59676 -123.76162 6354 ft 223 kts 299°
2026-04-27 02:51 48.60373 -123.78253 6101 ft 222 kts 300°
2026-04-27 02:52 48.61305 -123.80079 5836 ft 219 kts 316°
2026-04-27 02:52 48.62374 -123.81717 5597 ft 219 kts 315°
2026-04-27 02:52 48.63477 -123.83286 5296 ft 218 kts 328°
2026-04-27 02:52 48.64906 -123.83889 5103 ft 214 kts
2026-04-27 02:53 48.66274 -123.83150 5063 ft 210 kts 32°
2026-04-27 02:53 48.67481 -123.81829 5021 ft 219 kts 34°
2026-04-27 02:53 48.68708 -123.80423 4929 ft 223 kts 35°
2026-04-27 02:53 48.69940 -123.78987 4794 ft 223 kts 35°
2026-04-27 02:54 48.70950 -123.77240 4412 ft 224 kts 69°
2026-04-27 02:54 48.71026 -123.74952 4171 ft 218 kts 101°
2026-04-27 02:54 48.70703 -123.72759 3919 ft 207 kts 103°
2026-04-27 02:54 48.70331 -123.70645 3622 ft 208 kts 107°
2026-04-27 02:55 48.69934 -123.68571 3352 ft 202 kts 108°
2026-04-27 02:55 48.69538 -123.66534 3098 ft 203 kts 109°
2026-04-27 02:55 48.69137 -123.64477 2792 ft 205 kts 108°
2026-04-27 02:55 48.68743 -123.62429 2528 ft 199 kts 108°
2026-04-27 02:56 48.68366 -123.60478 2275 ft 188 kts 108°
2026-04-27 02:56 48.68003 -123.58601 2043 ft 186 kts 108°
2026-04-27 02:56 48.67641 -123.56727 1791 ft 185 kts 108°
2026-04-27 02:56 48.67282 -123.54862 1537 ft 184 kts 108°
2026-04-27 02:57 48.66934 -123.53051 1281 ft 173 kts 108°
2026-04-27 02:57 48.66610 -123.51371 1081 ft 160 kts 108°
2026-04-27 02:57 48.66318 -123.49849 874 ft 146 kts 108°
2026-04-27 02:57 48.66057 -123.48408 654 ft 138 kts 106°
2026-04-27 02:58 48.65794 -123.47043 483 ft 136 kts 110°
2026-04-27 02:58 48.65497 -123.45646 335 ft 142 kts 106°
2026-04-27 02:58 48.65229 -123.44191 141 ft 143 kts 107°
2026-04-27 02:58 48.64971 -123.42833 64 ft 120 kts 106°
2026-04-27 02:59 48.64792 -123.41887 64 ft 60 kts 106°
2026-04-27 02:59 48.64705 -123.41435 62 ft 34 kts 106°
2026-04-27 02:59 48.64644 -123.41232 63 ft 17 kts 156°
2026-04-27 02:59 48.64565 -123.41321 66 ft 16 kts 273°
2026-04-27 03:00 48.64596 -123.41484 61 ft 16 kts 287°
2026-04-27 03:00 48.64628 -123.41641 64 ft 15 kts 287°
2026-04-27 03:00 48.64655 -123.41792 70 ft 15 kts 285°
2026-04-27 03:00 48.64682 -123.41937 67 ft 14 kts 286°
2026-04-27 03:01 48.64709 -123.42072 64 ft 10 kts 287°
2026-04-27 03:01 48.64708 -123.42154 67 ft 8 kts 245°
2026-04-27 03:01 48.64650 -123.42225 63 ft 13 kts 211°
2026-04-27 03:01 48.64565 -123.42275 60 ft 13 kts 198°
2026-04-27 03:02 48.64480 -123.42313 58 ft 13 kts 195°
2026-04-27 03:02 48.64397 -123.42348 60 ft 12 kts 195°
2026-04-27 03:02 48.64315 -123.42383 59 ft 12 kts 195°
2026-04-27 03:02 48.64234 -123.42403 60 ft 12 kts 183°
2026-04-27 03:03 48.64156 -123.42445 61 ft 12 kts 216°
2026-04-27 03:03 48.64141 -123.42684 53 ft 12 kts 280°
2026-04-27 03:03 48.64157 -123.42810 53 ft 12 kts 281°
2026-04-27 03:04 48.64154 -123.42915 58 ft 4 kts 259°
2026-04-27 03:04 48.64147 -123.42958 58 ft 4 kts 257°
2026-04-27 03:04 48.64145 -123.42982 58 ft 0 kts 263°